Showing default

CENTAURI-8, 62714

Orbit data source: Space-Track

CENTAURI-8, 62714 is a payload satellite owned by Fleet Space (AU) in SSO that was launched on Tue, 14 Jan 2025 UTC via an FALCON 9 launch vehicle from the Air Force Western Test Range (AFWTR). Payload-class satellites include a variety of spacecraft equipped with specific instruments for various scientific and technological missions. These include communications satellites like Starlink; space stations such as the ISS; scientific satellites like the Hubble; Earth observation satellites from companies like Planet Labs, Umbra, and HawkEye 360; GPS; miniature CubeSats for education and research; and military/defense satellites.

Loading next visibility...
Identifier
62714, 2025-009DK
Orbit
SSO
Country
Flag of AUAU / AUS
Related business
Manufacturer
Terran Orbital
Mission
Operational Commercial Communications
Bus & Motor
CUBESAT 12U, Unknown motor
Mass
~25 kg wet, ~25 kg dry
Launch date (UTC)
2025-01-14 (9 months ago)
Launch vehicle
FALCON 9
Launch site
Air Force Western Test Range (AFWTR)
Object type
Payload
Rocket body
Debris
Shape & HBR
Box + 2 Pan, 0.5 m
Radar Cross Section
0.183 m², Medium (>0.1 m² and < 1m²)

Expand to show TLE details & history
Last TLE update: 19 hours ago

TLE from 19 hours ago
0 CENTAURI-8
1 62714U 25009DK  25286.21386473  .00007399  00000-0  67373-3 0  9990
2 62714  97.7259   4.6787 0000909 219.1285 140.9871 14.95453252 40531
Epoch: 2025-10-13T05:07Z
TLE epoch observation values (Epoch: 2025-10-13T05:07:57.912Z)
Latitude
0.00004°
Longitude
-94.33247°
Altitude
584.506 km
Speed
7.568 km/s
True Right ascension
00h 18m 42s
True Declination
0° 00' 00"
Sunlit
Object was in full shadow at epoch
Visualization orbit readout
Latitude
Unknown
Longitude
Unknown
Altitude
Unknown
Speed
Unknown
Apparent Right ascension
Unknown
Apparent Declination
Unknown
Sunlit
N/A
Visualization observer readout
Local Sidereal Time
18:50:40
Azimuth
Unknown
Elevation
Unknown
Doppler factor
Unknown
Orbital elements
Apogee altitude
578.611 km
Perigee altitude
577.346 km
Semi-major axis
6,956.116 km
Eccentricity
0.00009
Inclination
97.7259°
RAAN
4.6787°
Arg. of periapsis
219.1285°
True anomaly
140.99366°
Mean anomaly
140.9871°
Eccentric anomaly
140.99038°
Mean motion
3.74105 °/min
Orbital period
96.23 mins
BSTAR
0.00067373
Loading maneuver chart data...
Computing Atmospheric mass density...
Loading historical data...
Loading historical data...
Loading historical data...
Loading historical data...
Loading historical data...
Loading historical data...
Loading historical data...

Documentation

Showing up to 5 results
|